Time,TemperatureF,DewpointF,PressureIn,WindDirection,WindDirectionDegrees,WindSpeedMPH,WindSpeedGustMPH,Humidity,HourlyPrecipIn,Conditions,Clouds,dailyrainin,SoftwareType,DateUTC
2013-02-22 00:04:00,47.3,42.1,30.00,SSE,149,3.0,13.0,82,0.00,,,0.00,Wunderground v.1.15,2013-02-22 06:04:00,
2013-02-22 00:09:00,47.1,42.2,30.00,SSW,204,3.0,13.0,83,0.00,,,0.00,Wunderground v.1.15,2013-02-22 06:09:00,
2013-02-22 00:14:00,47.1,42.2,30.00,SSE,156,5.0,13.0,83,0.00,,,0.00,Wunderground v.1.15,2013-02-22 06:14:00,
2013-02-22 00:20:00,46.8,42.2,30.01,SW,230,5.0,13.0,84,0.00,,,0.00,Wunderground v.1.15,2013-02-22 06:20:00,
2013-02-22 00:26:00,46.8,42.5,30.01,SSE,159,5.0,13.0,85,0.00,,,0.01,Wunderground v.1.15,2013-02-22 06:26:00,
2013-02-22 00:31:00,46.4,42.7,30.01,SSE,159,3.0,13.0,87,0.14,,,0.03,Wunderground v.1.15,2013-02-22 06:31:00,
2013-02-22 00:36:00,46.1,42.7,30.01,SE,142,3.0,13.0,88,0.10,,,0.04,Wunderground v.1.15,2013-02-22 06:36:00,
2013-02-22 00:42:00,45.8,42.7,30.01,SW,236,3.0,13.0,89,0.10,,,0.04,Wunderground v.1.15,2013-02-22 06:42:00,
2013-02-22 00:47:00,45.9,42.8,30.02,SSE,164,5.0,13.0,89,0.05,,,0.04,Wunderground v.1.15,2013-02-22 06:47:00,
2013-02-22 00:53:00,45.8,42.7,30.02,South,172,3.0,13.0,89,0.04,,,0.05,Wunderground v.1.15,2013-02-22 06:53:00,
2013-02-22 00:58:00,45.6,42.8,30.01,SSW,204,3.0,13.0,90,0.32,,,0.06,Wunderground v.1.15,2013-02-22 06:58:00,
2013-02-22 01:04:00,45.5,43.0,30.01,South,171,4.0,13.0,91,0.12,,,0.07,Wunderground v.1.15,2013-02-22 07:04:00,
2013-02-22 01:09:00,45.6,43.1,30.01,South,183,5.0,13.0,91,0.08,,,0.08,Wunderground v.1.15,2013-02-22 07:09:00,
2013-02-22 01:15:00,45.5,43.0,30.01,WSW,238,4.0,13.0,91,0.07,,,0.08,Wunderground v.1.15,2013-02-22 07:15:00,
2013-02-22 01:20:00,45.6,43.1,30.01,SSW,211,4.0,4.0,91,0.04,,,0.08,Wunderground v.1.15,2013-02-22 07:20:00,
2013-02-22 01:25:00,45.6,43.1,30.00,South,169,3.0,13.0,91,0.04,,,0.09,Wunderground v.1.15,2013-02-22 07:25:00,
2013-02-22 01:31:00,45.7,43.2,30.00,SE,140,3.0,4.0,91,0.04,,,0.09,Wunderground v.1.15,2013-02-22 07:31:00,
2013-02-22 01:36:00,45.4,43.2,30.00,SE,140,3.0,13.0,92,0.04,,,0.10,Wunderground v.1.15,2013-02-22 07:36:00,
2013-02-22 01:42:00,45.2,43.3,30.00,SSE,156,1.0,13.0,93,0.04,,,0.10,Wunderground v.1.15,2013-02-22 07:42:00,
2013-02-22 01:47:00,45.3,43.4,30.00,South,170,1.0,13.0,93,0.06,,,0.11,Wunderground v.1.15,2013-02-22 07:47:00,
2013-02-22 01:52:00,45.3,43.4,30.01,South,174,3.0,13.0,93,0.06,,,0.11,Wunderground v.1.15,2013-02-22 07:52:00,
2013-02-22 01:58:00,45.3,43.4,30.00,SSE,166,3.0,13.0,93,0.07,,,0.12,Wunderground v.1.15,2013-02-22 07:58:00,
2013-02-22 02:03:00,45.3,43.4,30.01,SE,138,2.0,13.0,93,0.06,,,0.12,Wunderground v.1.15,2013-02-22 08:03:00,
2013-02-22 02:09:00,45.4,43.5,30.01,South,181,3.0,13.0,93,0.04,,,0.12,Wunderground v.1.15,2013-02-22 08:09:00,
2013-02-22 02:15:00,46.1,43.9,30.01,South,181,5.0,13.0,92,0.00,,,0.12,Wunderground v.1.15,2013-02-22 08:15:00,
2013-02-22 02:21:00,46.3,44.1,30.00,SSW,207,5.0,13.0,92,0.00,,,0.12,Wunderground v.1.15,2013-02-22 08:21:00,
2013-02-22 02:26:00,46.3,44.1,30.00,SSE,164,4.0,13.0,92,0.00,,,0.12,Wunderground v.1.15,2013-02-22 08:26:00,
2013-02-22 02:31:00,46.7,44.2,30.00,South,189,5.0,13.0,91,0.00,,,0.12,Wunderground v.1.15,2013-02-22 08:31:00,
2013-02-22 02:37:00,46.6,44.4,30.00,SSW,201,5.0,13.0,92,0.00,,,0.12,Wunderground v.1.15,2013-02-22 08:37:00,
2013-02-22 02:42:00,46.6,44.4,29.99,SW,235,4.0,13.0,92,0.00,,,0.13,Wunderground v.1.15,2013-02-22 08:42:00,
2013-02-22 02:48:00,46.8,44.3,29.99,WSW,253,5.0,13.0,91,0.00,,,0.13,Wunderground v.1.15,2013-02-22 08:48:00,
2013-02-22 02:53:00,47.4,44.3,29.99,SSW,194,6.0,13.0,89,0.00,,,0.13,Wunderground v.1.15,2013-02-22 08:53:00,
2013-02-22 02:58:00,47.6,44.5,29.99,South,174,4.0,13.0,89,0.00,,,0.13,Wunderground v.1.15,2013-02-22 08:58:00,
2013-02-22 03:04:00,47.5,44.4,29.99,WSW,243,3.0,13.0,89,0.00,,,0.13,Wunderground v.1.15,2013-02-22 09:04:00,
2013-02-22 03:10:00,47.7,44.3,29.99,South,178,5.0,13.0,88,0.00,,,0.13,Wunderground v.1.15,2013-02-22 09:10:00,
2013-02-22 03:15:00,47.9,44.5,29.99,SSW,205,5.0,13.0,88,0.00,,,0.13,Wunderground v.1.15,2013-02-22 09:15:00,
2013-02-22 03:20:00,48.1,44.4,29.99,SSW,195,5.0,13.0,87,0.00,,,0.13,Wunderground v.1.15,2013-02-22 09:20:00,
2013-02-22 03:26:00,48.0,44.6,29.99,SSE,162,5.0,13.0,88,0.00,,,0.13,Wunderground v.1.15,2013-02-22 09:26:00,
2013-02-22 03:31:00,48.1,44.4,29.99,SW,226,5.0,13.0,87,0.00,,,0.13,Wunderground v.1.15,2013-02-22 09:31:00,
2013-02-22 03:37:00,48.1,44.4,29.99,West,271,6.0,13.0,87,0.00,,,0.13,Wunderground v.1.15,2013-02-22 09:37:00,
2013-02-22 03:42:00,48.1,44.1,29.99,WSW,238,5.0,13.0,86,0.00,,,0.13,Wunderground v.1.15,2013-02-22 09:42:00,
2013-02-22 03:48:00,48.3,44.0,29.99,West,265,7.0,13.0,85,0.00,,,0.13,Wunderground v.1.15,2013-02-22 09:48:00,
2013-02-22 03:53:00,48.3,44.0,30.00,SW,221,7.0,13.0,85,0.00,,,0.13,Wunderground v.1.15,2013-02-22 09:53:00,
2013-02-22 03:59:00,48.4,44.1,30.00,SSW,205,6.0,13.0,85,0.00,,,0.13,Wunderground v.1.15,2013-02-22 09:59:00,
2013-02-22 04:04:00,48.4,44.1,30.00,SW,226,6.0,13.0,85,0.00,,,0.13,Wunderground v.1.15,2013-02-22 10:04:00,
2013-02-22 04:09:00,48.3,44.3,30.00,South,184,6.0,6.0,86,0.00,,,0.13,Wunderground v.1.15,2013-02-22 10:09:00,
2013-02-22 04:15:00,48.1,43.8,29.99,SSW,206,6.0,13.0,85,0.00,,,0.13,Wunderground v.1.15,2013-02-22 10:15:00,
2013-02-22 04:20:00,48.0,44.0,30.00,SSE,150,6.0,13.0,86,0.00,,,0.13,Wunderground v.1.15,2013-02-22 10:20:00,
2013-02-22 04:26:00,48.0,44.0,30.00,WSW,244,6.0,13.0,86,0.00,,,0.13,Wunderground v.1.15,2013-02-22 10:26:00,
2013-02-22 04:31:00,48.1,43.8,30.00,South,189,7.0,13.0,85,0.00,,,0.13,Wunderground v.1.15,2013-02-22 10:31:00,
2013-02-22 04:36:00,48.1,43.8,30.00,SSW,207,7.0,13.0,85,0.00,,,0.13,Wunderground v.1.15,2013-02-22 10:36:00,
2013-02-22 04:42:00,47.9,43.9,30.00,WSW,240,4.0,13.0,86,0.00,,,0.13,Wunderground v.1.15,2013-02-22 10:42:00,
2013-02-22 04:47:00,48.1,44.1,30.00,SSE,166,4.0,13.0,86,0.00,,,0.13,Wunderground v.1.15,2013-02-22 10:47:00,
2013-02-22 04:53:00,47.9,43.9,30.01,South,169,6.0,13.0,86,0.00,,,0.13,Wunderground v.1.15,2013-02-22 10:53:00,
2013-02-22 04:58:00,47.8,44.1,30.01,SSE,159,3.0,13.0,87,0.00,,,0.13,Wunderground v.1.15,2013-02-22 10:58:00,
2013-02-22 05:04:00,47.6,43.6,30.01,West,278,4.0,14.0,86,0.00,,,0.13,Wunderground v.1.15,2013-02-22 11:04:00,
2013-02-22 05:09:00,47.7,43.7,30.01,South,187,5.0,14.0,86,0.00,,,0.13,Wunderground v.1.15,2013-02-22 11:09:00,
2013-02-22 05:15:00,47.6,43.6,30.02,South,191,5.0,13.0,86,0.00,,,0.13,Wunderground v.1.15,2013-02-22 11:15:00,
2013-02-22 05:20:00,47.8,43.8,30.02,South,185,6.0,6.0,86,0.00,,,0.13,Wunderground v.1.15,2013-02-22 11:20:00,
2013-02-22 05:25:00,47.7,43.7,30.02,SSE,150,4.0,13.0,86,0.00,,,0.13,Wunderground v.1.15,2013-02-22 11:25:00,
2013-02-22 05:31:00,47.6,43.9,30.02,South,175,2.0,13.0,87,0.00,,,0.13,Wunderground v.1.15,2013-02-22 11:31:00,
2013-02-22 05:36:00,47.5,43.5,30.02,SSW,201,2.0,13.0,86,0.00,,,0.13,Wunderground v.1.15,2013-02-22 11:36:00,
2013-02-22 05:42:00,47.6,43.9,30.03,SSE,166,3.0,13.0,87,0.00,,,0.13,Wunderground v.1.15,2013-02-22 11:42:00,
2013-02-22 05:47:00,47.6,43.9,30.03,South,178,4.0,13.0,87,0.00,,,0.13,Wunderground v.1.15,2013-02-22 11:47:00,
2013-02-22 05:53:00,47.7,43.7,30.03,South,176,3.0,13.0,86,0.00,,,0.13,Wunderground v.1.15,2013-02-22 11:53:00,
2013-02-22 05:58:00,47.7,44.0,30.03,South,177,3.0,13.0,87,0.00,,,0.13,Wunderground v.1.15,2013-02-22 11:58:00,
2013-02-22 06:04:00,47.7,44.0,30.03,South,185,2.0,13.0,87,0.00,,,0.13,Wunderground v.1.15,2013-02-22 12:04:00,
2013-02-22 06:10:00,47.8,44.1,30.03,SSW,205,3.0,13.0,87,0.00,,,0.13,Wunderground v.1.15,2013-02-22 12:10:00,
2013-02-22 06:15:00,48.0,44.0,30.03,SW,232,5.0,13.0,86,0.00,,,0.13,Wunderground v.1.15,2013-02-22 12:15:00,
2013-02-22 06:20:00,48.1,44.1,30.03,WSW,247,7.0,11.0,86,0.00,,,0.13,Wunderground v.1.15,2013-02-22 12:20:00,
2013-02-22 06:26:00,48.0,44.0,30.03,South,178,7.0,13.0,86,0.00,,,0.13,Wunderground v.1.15,2013-02-22 12:26:00,
2013-02-22 06:31:00,48.0,44.3,30.04,South,188,6.0,13.0,87,0.00,,,0.13,Wunderground v.1.15,2013-02-22 12:31:00,
2013-02-22 06:37:00,48.0,44.3,30.05,SSE,168,6.0,13.0,87,0.00,,,0.13,Wunderground v.1.15,2013-02-22 12:37:00,
2013-02-22 06:42:00,48.2,44.2,30.05,SSW,209,6.0,13.0,86,0.00,,,0.13,Wunderground v.1.15,2013-02-22 12:42:00,
2013-02-22 06:47:00,48.2,44.5,30.05,WSW,254,6.0,13.0,87,0.00,,,0.13,Wunderground v.1.15,2013-02-22 12:47:00,
2013-02-22 06:53:00,48.1,44.1,30.05,WSW,241,5.0,13.0,86,0.00,,,0.13,Wunderground v.1.15,2013-02-22 12:53:00,
2013-02-22 06:58:00,48.1,44.1,30.05,South,169,5.0,13.0,86,0.00,,,0.13,Wunderground v.1.15,2013-02-22 12:58:00,
2013-02-22 07:04:00,48.0,44.3,30.05,South,170,4.0,13.0,87,0.00,,,0.13,Wunderground v.1.15,2013-02-22 13:04:00,
2013-02-22 07:09:00,47.9,44.2,30.05,South,171,4.0,13.0,87,0.00,,,0.13,Wunderground v.1.15,2013-02-22 13:09:00,
2013-02-22 07:14:00,47.9,44.2,30.05,SSE,162,3.0,13.0,87,0.00,,,0.13,Wunderground v.1.15,2013-02-22 13:14:00,
2013-02-22 07:20:00,47.7,44.3,30.06,SSE,166,3.0,3.0,88,0.00,,,0.13,Wunderground v.1.15,2013-02-22 13:20:00,
2013-02-22 07:25:00,47.7,44.3,30.06,South,176,3.0,13.0,88,0.00,,,0.13,Wunderground v.1.15,2013-02-22 13:25:00,
2013-02-22 07:31:00,47.9,44.5,30.06,South,180,3.0,13.0,88,0.00,,,0.13,Wunderground v.1.15,2013-02-22 13:31:00,
2013-02-22 07:36:00,47.9,44.5,30.07,SW,223,3.0,13.0,88,0.00,,,0.13,Wunderground v.1.15,2013-02-22 13:36:00,
2013-02-22 07:42:00,48.1,44.4,30.07,South,185,4.0,13.0,87,0.00,,,0.13,Wunderground v.1.15,2013-02-22 13:42:00,
2013-02-22 07:47:00,48.1,44.7,30.07,South,170,4.0,13.0,88,0.00,,,0.13,Wunderground v.1.15,2013-02-22 13:47:00,
2013-02-22 07:53:00,48.1,44.4,30.07,SW,219,4.0,13.0,87,0.00,,,0.13,Wunderground v.1.15,2013-02-22 13:53:00,
2013-02-22 07:58:00,48.3,44.6,30.07,South,190,4.0,13.0,87,0.00,,,0.13,Wunderground v.1.15,2013-02-22 13:58:00,
2013-02-22 08:04:00,48.3,44.6,30.07,SSE,166,4.0,13.0,87,0.00,,,0.13,Wunderground v.1.15,2013-02-22 14:04:00,
2013-02-22 08:09:00,48.4,44.7,30.07,WSW,242,4.0,13.0,87,0.00,,,0.13,Wunderground v.1.15,2013-02-22 14:09:00,
2013-02-22 08:14:00,48.5,44.5,30.06,South,185,6.0,13.0,86,0.00,,,0.13,Wunderground v.1.15,2013-02-22 14:14:00,
2013-02-22 08:20:00,48.4,44.4,30.06,South,190,6.0,6.0,86,0.00,,,0.13,Wunderground v.1.15,2013-02-22 14:20:00,
2013-02-22 08:25:00,48.4,44.4,30.07,SW,214,4.0,13.0,86,0.00,,,0.13,Wunderground v.1.15,2013-02-22 14:25:00,
2013-02-22 08:31:00,48.5,44.2,30.07,WSW,244,5.0,8.0,85,0.00,,,0.13,Wunderground v.1.15,2013-02-22 14:31:00,
2013-02-22 08:36:00,48.5,44.2,30.06,South,181,5.0,13.0,85,0.00,,,0.13,Wunderground v.1.15,2013-02-22 14:36:00,
2013-02-22 08:41:00,48.5,44.2,30.06,SSW,192,5.0,13.0,85,0.00,,,0.13,Wunderground v.1.15,2013-02-22 14:41:00,
2013-02-22 08:47:00,48.5,44.2,30.06,SW,226,4.0,13.0,85,0.00,,,0.13,Wunderground v.1.15,2013-02-22 14:47:00,
2013-02-22 08:52:00,48.4,44.1,30.06,WSW,242,6.0,13.0,85,0.00,,,0.13,Wunderground v.1.15,2013-02-22 14:52:00,
2013-02-22 08:58:00,48.4,44.1,30.06,South,173,7.0,13.0,85,0.00,,,0.13,Wunderground v.1.15,2013-02-22 14:58:00,
2013-02-22 09:03:00,48.6,44.3,30.06,SSW,200,6.0,13.0,85,0.00,,,0.13,Wunderground v.1.15,2013-02-22 15:03:00,
2013-02-22 09:09:00,48.5,44.2,30.06,SW,229,5.0,13.0,85,0.00,,,0.13,Wunderground v.1.15,2013-02-22 15:09:00,
2013-02-22 09:14:00,48.6,44.0,30.06,WSW,256,6.0,13.0,84,0.00,,,0.13,Wunderground v.1.15,2013-02-22 15:14:00,
2013-02-22 09:20:00,48.7,44.1,30.06,SSE,149,7.0,7.0,84,0.00,,,0.13,Wunderground v.1.15,2013-02-22 15:20:00,
2013-02-22 09:25:00,48.8,43.9,30.06,SSW,207,7.0,13.0,83,0.00,,,0.13,Wunderground v.1.15,2013-02-22 15:25:00,
2013-02-22 09:30:00,48.8,44.2,30.06,SW,233,7.0,13.0,84,0.00,,,0.13,Wunderground v.1.15,2013-02-22 15:30:00,
2013-02-22 09:36:00,48.8,43.9,30.07,WSW,250,7.0,13.0,83,0.00,,,0.13,Wunderground v.1.15,2013-02-22 15:36:00,
2013-02-22 09:41:00,48.7,43.8,30.06,South,176,8.0,13.0,83,0.00,,,0.13,Wunderground v.1.15,2013-02-22 15:41:00,
2013-02-22 09:47:00,48.8,44.2,30.06,WSW,238,7.0,13.0,84,0.00,,,0.13,Wunderground v.1.15,2013-02-22 15:47:00,
2013-02-22 09:53:00,48.7,43.8,30.06,SW,223,7.0,13.0,83,0.00,,,0.13,Wunderground v.1.15,2013-02-22 15:53:00,
2013-02-22 09:59:00,48.7,43.8,30.07,SW,232,7.0,13.0,83,0.00,,,0.13,Wunderground v.1.15,2013-02-22 15:59:00,
2013-02-22 10:04:00,48.8,44.2,30.06,WSW,251,6.0,13.0,84,0.00,,,0.13,Wunderground v.1.15,2013-02-22 16:04:00,
2013-02-22 10:10:00,48.9,44.0,30.07,SSW,203,6.0,13.0,83,0.00,,,0.13,Wunderground v.1.15,2013-02-22 16:10:00,
2013-02-22 10:15:00,48.9,44.3,30.07,South,190,6.0,13.0,84,0.00,,,0.13,Wunderground v.1.15,2013-02-22 16:15:00,
2013-02-22 10:20:00,48.9,44.3,30.07,SSW,206,5.0,13.0,84,0.00,,,0.13,Wunderground v.1.15,2013-02-22 16:20:00,
2013-02-22 10:26:00,48.9,44.3,30.07,WSW,252,5.0,13.0,84,0.00,,,0.13,Wunderground v.1.15,2013-02-22 16:26:00,
2013-02-22 10:31:00,48.8,44.2,30.08,SSW,195,6.0,13.0,84,0.00,,,0.13,Wunderground v.1.15,2013-02-22 16:31:00,
2013-02-22 10:37:00,48.9,44.3,30.08,South,175,4.0,13.0,84,0.00,,,0.13,Wunderground v.1.15,2013-02-22 16:37:00,
2013-02-22 10:42:00,48.9,44.3,30.08,SSE,166,3.0,13.0,84,0.00,,,0.13,Wunderground v.1.15,2013-02-22 16:42:00,
2013-02-22 10:48:00,48.8,43.9,30.08,South,169,4.0,13.0,83,0.00,,,0.13,Wunderground v.1.15,2013-02-22 16:48:00,
2013-02-22 10:54:00,48.8,43.9,30.08,SW,219,6.0,13.0,83,0.00,,,0.13,Wunderground v.1.15,2013-02-22 16:54:00,
2013-02-22 10:59:00,48.7,44.1,30.08,South,178,6.0,13.0,84,0.00,,,0.13,Wunderground v.1.15,2013-02-22 16:59:00,
2013-02-22 11:04:00,48.7,44.4,30.08,SSW,205,4.0,13.0,85,0.00,,,0.13,Wunderground v.1.15,2013-02-22 17:04:00,
2013-02-22 11:10:00,48.8,44.2,30.08,SSW,200,4.0,13.0,84,0.00,,,0.13,Wunderground v.1.15,2013-02-22 17:10:00,
2013-02-22 11:15:00,48.8,44.2,30.08,South,181,4.0,13.0,84,0.00,,,0.13,Wunderground v.1.15,2013-02-22 17:15:00,
2013-02-22 11:21:00,48.8,44.2,30.08,South,190,5.0,13.0,84,0.00,,,0.13,Wunderground v.1.15,2013-02-22 17:21:00,
2013-02-22 11:26:00,48.9,44.6,30.08,SSW,211,5.0,13.0,85,0.00,,,0.13,Wunderground v.1.15,2013-02-22 17:26:00,
2013-02-22 11:31:00,49.0,44.4,30.08,SW,219,5.0,13.0,84,0.00,,,0.13,Wunderground v.1.15,2013-02-22 17:31:00,
2013-02-22 11:37:00,48.8,44.2,30.08,SSW,197,6.0,13.0,84,0.00,,,0.13,Wunderground v.1.15,2013-02-22 17:37:00,
2013-02-22 11:42:00,48.8,44.5,30.08,SSE,153,6.0,13.0,85,0.00,,,0.13,Wunderground v.1.15,2013-02-22 17:42:00,
2013-02-22 11:48:00,48.8,44.5,30.08,South,190,5.0,13.0,85,0.00,,,0.13,Wunderground v.1.15,2013-02-22 17:48:00,
2013-02-22 11:53:00,48.9,44.6,30.08,SSW,200,5.0,13.0,85,0.00,,,0.13,Wunderground v.1.15,2013-02-22 17:53:00,
2013-02-22 11:59:00,48.7,44.4,30.08,SSW,198,6.0,13.0,85,0.00,,,0.13,Wunderground v.1.15,2013-02-22 17:59:00,
2013-02-22 12:04:00,48.8,44.8,30.08,WSW,250,6.0,13.0,86,0.00,,,0.13,Wunderground v.1.15,2013-02-22 18:04:00,
2013-02-22 12:10:00,48.6,44.3,30.08,SSW,202,6.0,6.0,85,0.00,,,0.13,Wunderground v.1.15,2013-02-22 18:10:00,
2013-02-22 12:15:00,48.7,44.4,30.07,South,184,5.0,13.0,85,0.00,,,0.13,Wunderground v.1.15,2013-02-22 18:15:00,
2013-02-22 12:21:00,48.7,44.7,30.08,South,191,4.0,5.0,86,0.00,,,0.13,Wunderground v.1.15,2013-02-22 18:21:00,
2013-02-22 12:26:00,48.7,44.4,30.07,SW,217,4.0,13.0,85,0.00,,,0.13,Wunderground v.1.15,2013-02-22 18:26:00,
2013-02-22 12:32:00,48.8,44.5,30.07,South,173,5.0,13.0,85,0.00,,,0.13,Wunderground v.1.15,2013-02-22 18:32:00,
2013-02-22 12:37:00,48.7,44.4,30.06,South,183,5.0,13.0,85,0.00,,,0.13,Wunderground v.1.15,2013-02-22 18:37:00,
2013-02-22 12:43:00,48.8,44.8,30.07,SSW,197,5.0,13.0,86,0.00,,,0.13,Wunderground v.1.15,2013-02-22 18:43:00,
2013-02-22 12:48:00,48.7,44.4,30.06,South,187,5.0,13.0,85,0.00,,,0.13,Wunderground v.1.15,2013-02-22 18:48:00,
2013-02-22 12:54:00,48.7,44.7,30.06,South,190,5.0,13.0,86,0.00,,,0.13,Wunderground v.1.15,2013-02-22 18:54:00,
2013-02-22 12:59:00,48.8,44.5,30.06,SSE,166,5.0,13.0,85,0.00,,,0.13,Wunderground v.1.15,2013-02-22 18:59:00,
2013-02-22 13:04:00,49.1,44.8,30.06,SSW,197,4.0,13.0,85,0.00,,,0.13,Wunderground v.1.15,2013-02-22 19:04:00,
2013-02-22 13:10:00,49.1,44.8,30.06,South,183,4.0,4.0,85,0.00,,,0.13,Wunderground v.1.15,2013-02-22 19:10:00,
2013-02-22 13:15:00,49.4,45.4,30.05,SSE,166,4.0,13.0,86,0.00,,,0.13,Wunderground v.1.15,2013-02-22 19:15:00,
2013-02-22 13:21:00,49.5,45.2,30.05,SW,226,3.0,6.0,85,0.00,,,0.13,Wunderground v.1.15,2013-02-22 19:21:00,
2013-02-22 13:27:00,49.5,45.2,30.04,South,174,4.0,13.0,85,0.00,,,0.13,Wunderground v.1.15,2013-02-22 19:27:00,
2013-02-22 13:32:00,49.7,45.4,30.04,SSW,200,3.0,13.0,85,0.00,,,0.13,Wunderground v.1.15,2013-02-22 19:32:00,
2013-02-22 13:38:00,49.7,45.1,30.04,South,185,4.0,13.0,84,0.00,,,0.13,Wunderground v.1.15,2013-02-22 19:38:00,
2013-02-22 13:43:00,49.7,45.4,30.04,South,183,4.0,13.0,85,0.00,,,0.13,Wunderground v.1.15,2013-02-22 19:43:00,
2013-02-22 13:49:00,49.8,45.5,30.04,SSE,162,4.0,13.0,85,0.00,,,0.13,Wunderground v.1.15,2013-02-22 19:49:00,
2013-02-22 13:54:00,50.0,45.7,30.04,SSW,211,3.0,13.0,85,0.00,,,0.13,Wunderground v.1.15,2013-02-22 19:54:00,
2013-02-22 13:59:00,50.0,45.7,30.03,South,171,3.0,3.0,85,0.00,,,0.13,Wunderground v.1.15,2013-02-22 19:59:00,
2013-02-22 14:05:00,50.1,45.5,30.03,SSW,200,3.0,13.0,84,0.00,,,0.13,Wunderground v.1.15,2013-02-22 20:05:00,
2013-02-22 14:11:00,50.0,45.4,30.03,SSW,194,3.0,13.0,84,0.00,,,0.13,Wunderground v.1.15,2013-02-22 20:11:00,
2013-02-22 14:16:00,49.9,45.6,30.02,SSW,194,4.0,13.0,85,0.00,,,0.13,Wunderground v.1.15,2013-02-22 20:16:00,
2013-02-22 14:21:00,49.9,45.6,30.02,SSE,168,3.0,13.0,85,0.00,,,0.13,Wunderground v.1.15,2013-02-22 20:21:00,
2013-02-22 14:27:00,50.1,45.8,30.02,South,178,2.0,13.0,85,0.00,,,0.13,Wunderground v.1.15,2013-02-22 20:27:00,
2013-02-22 14:32:00,50.2,45.6,30.03,SSW,203,2.0,13.0,84,0.00,,,0.13,Wunderground v.1.15,2013-02-22 20:32:00,
2013-02-22 14:38:00,49.9,45.3,30.02,South,174,3.0,13.0,84,0.00,,,0.13,Wunderground v.1.15,2013-02-22 20:38:00,
2013-02-22 14:43:00,49.9,45.6,30.02,South,171,3.0,13.0,85,0.00,,,0.13,Wunderground v.1.15,2013-02-22 20:43:00,
2013-02-22 14:49:00,49.8,45.2,30.02,South,169,3.0,13.0,84,0.00,,,0.13,Wunderground v.1.15,2013-02-22 20:49:00,
2013-02-22 14:55:00,49.9,45.6,30.02,SSE,168,3.0,13.0,85,0.00,,,0.13,Wunderground v.1.15,2013-02-22 20:55:00,
2013-02-22 15:00:00,49.6,45.0,30.02,South,184,3.0,13.0,84,0.00,,,0.13,Wunderground v.1.15,2013-02-22 21:00:00,
2013-02-22 15:06:00,49.6,45.3,30.02,South,178,4.0,13.0,85,0.00,,,0.13,Wunderground v.1.15,2013-02-22 21:06:00,
2013-02-22 15:11:00,49.6,45.3,30.02,SSW,203,3.0,13.0,85,0.00,,,0.13,Wunderground v.1.15,2013-02-22 21:11:00,
2013-02-22 15:17:00,49.6,45.3,30.02,South,173,4.0,13.0,85,0.00,,,0.13,Wunderground v.1.15,2013-02-22 21:17:00,
2013-02-22 15:22:00,49.5,45.2,30.01,South,173,4.0,13.0,85,0.00,,,0.13,Wunderground v.1.15,2013-02-22 21:22:00,
2013-02-22 15:27:00,49.5,45.2,30.01,SSE,160,4.0,13.0,85,0.00,,,0.13,Wunderground v.1.15,2013-02-22 21:27:00,
2013-02-22 15:33:00,49.4,45.1,30.01,SSW,196,4.0,13.0,85,0.00,,,0.13,Wunderground v.1.15,2013-02-22 21:33:00,
2013-02-22 15:39:00,49.4,45.1,30.01,South,185,3.0,13.0,85,0.00,,,0.13,Wunderground v.1.15,2013-02-22 21:39:00,
2013-02-22 15:44:00,49.5,45.2,30.02,SSE,168,2.0,13.0,85,0.00,,,0.13,Wunderground v.1.15,2013-02-22 21:44:00,
2013-02-22 15:49:00,49.5,45.2,30.02,South,170,2.0,13.0,85,0.00,,,0.13,Wunderground v.1.15,2013-02-22 21:49:00,
2013-02-22 15:55:00,49.4,45.1,30.01,SSW,200,3.0,13.0,85,0.00,,,0.13,Wunderground v.1.15,2013-02-22 21:55:00,
2013-02-22 16:00:00,49.2,44.9,30.01,South,171,3.0,13.0,85,0.00,,,0.13,Wunderground v.1.15,2013-02-22 22:00:00,
2013-02-22 16:06:00,49.1,44.8,30.02,South,171,3.0,13.0,85,0.00,,,0.13,Wunderground v.1.15,2013-02-22 22:06:00,
2013-02-22 16:11:00,49.1,44.8,30.02,South,181,3.0,13.0,85,0.00,,,0.13,Wunderground v.1.15,2013-02-22 22:11:00,
2013-02-22 16:17:00,49.0,44.7,30.01,SSE,166,3.0,13.0,85,0.00,,,0.13,Wunderground v.1.15,2013-02-22 22:17:00,
2013-02-22 16:22:00,48.9,44.9,30.01,South,180,3.0,13.0,86,0.00,,,0.13,Wunderground v.1.15,2013-02-22 22:22:00,
2013-02-22 16:28:00,48.9,44.9,30.01,South,169,3.0,13.0,86,0.00,,,0.13,Wunderground v.1.15,2013-02-22 22:28:00,
2013-02-22 16:33:00,48.9,44.9,30.01,South,171,2.0,13.0,86,0.00,,,0.13,Wunderground v.1.15,2013-02-22 22:33:00,
2013-02-22 16:39:00,48.8,44.8,30.01,SSE,166,2.0,13.0,86,0.00,,,0.13,Wunderground v.1.15,2013-02-22 22:39:00,
2013-02-22 16:44:00,48.7,44.7,30.01,South,173,1.0,13.0,86,0.00,,,0.13,Wunderground v.1.15,2013-02-22 22:44:00,
2013-02-22 16:50:00,48.7,44.7,30.01,South,188,1.0,13.0,86,0.00,,,0.13,Wunderground v.1.15,2013-02-22 22:50:00,
2013-02-22 16:55:00,48.5,44.5,30.02,SSE,166,2.0,13.0,86,0.00,,,0.13,Wunderground v.1.15,2013-02-22 22:55:00,
2013-02-22 17:00:00,48.4,44.7,30.02,SSE,167,1.0,13.0,87,0.00,,,0.13,Wunderground v.1.15,2013-02-22 23:00:00,
2013-02-22 17:06:00,48.4,44.7,30.02,SSE,166,1.0,13.0,87,0.00,,,0.13,Wunderground v.1.15,2013-02-22 23:06:00,
2013-02-22 17:11:00,48.3,44.3,30.03,South,173,2.0,13.0,86,0.00,,,0.13,Wunderground v.1.15,2013-02-22 23:11:00,
2013-02-22 17:17:00,48.2,44.2,30.03,SSW,198,3.0,13.0,86,0.00,,,0.13,Wunderground v.1.15,2013-02-22 23:17:00,
2013-02-22 17:23:00,48.1,44.4,30.04,South,170,4.0,13.0,87,0.00,,,0.13,Wunderground v.1.15,2013-02-22 23:23:00,
2013-02-22 17:28:00,48.0,44.3,30.04,South,178,3.0,13.0,87,0.00,,,0.13,Wunderground v.1.15,2013-02-22 23:28:00,
2013-02-22 17:34:00,47.9,44.2,30.03,South,187,3.0,13.0,87,0.00,,,0.13,Wunderground v.1.15,2013-02-22 23:34:00,
2013-02-22 17:39:00,47.9,44.2,30.03,SSE,167,3.0,13.0,87,0.00,,,0.13,Wunderground v.1.15,2013-02-22 23:39:00,
2013-02-22 17:44:00,47.8,44.1,30.04,South,169,2.0,13.0,87,0.00,,,0.13,Wunderground v.1.15,2013-02-22 23:44:00,
2013-02-22 17:50:00,47.7,44.0,30.04,South,170,2.0,13.0,87,0.00,,,0.13,Wunderground v.1.15,2013-02-22 23:50:00,
2013-02-22 17:55:00,47.7,44.0,30.04,South,174,2.0,13.0,87,0.00,,,0.13,Wunderground v.1.15,2013-02-22 23:55:00,
2013-02-22 18:01:00,47.6,44.2,30.05,South,190,2.0,13.0,88,0.00,,,0.13,Wunderground v.1.15,2013-02-23 00:01:00,
2013-02-22 18:06:00,47.6,44.2,30.03,South,170,3.0,13.0,88,0.00,,,0.13,Wunderground v.1.15,2013-02-23 00:06:00,
2013-02-22 18:12:00,47.5,44.1,30.04,SSW,204,3.0,13.0,88,0.00,,,0.13,Wunderground v.1.15,2013-02-23 00:12:00,
2013-02-22 18:17:00,47.5,44.1,30.03,SSE,166,3.0,13.0,88,0.00,,,0.13,Wunderground v.1.15,2013-02-23 00:17:00,
2013-02-22 18:23:00,47.4,44.3,30.03,SSE,166,2.0,13.0,89,0.00,,,0.13,Wunderground v.1.15,2013-02-23 00:23:00,
2013-02-22 18:28:00,47.3,44.2,30.03,South,185,2.0,13.0,89,0.00,,,0.13,Wunderground v.1.15,2013-02-23 00:28:00,
2013-02-22 18:34:00,47.2,44.1,30.03,South,176,3.0,13.0,89,0.00,,,0.13,Wunderground v.1.15,2013-02-23 00:34:00,
2013-02-22 18:39:00,47.2,44.1,30.03,South,188,3.0,13.0,89,0.00,,,0.13,Wunderground v.1.15,2013-02-23 00:39:00,
2013-02-22 18:45:00,47.1,44.0,30.03,SSE,162,3.0,13.0,89,0.00,,,0.13,Wunderground v.1.15,2013-02-23 00:45:00,
2013-02-22 18:50:00,47.0,43.9,30.03,South,174,3.0,13.0,89,0.00,,,0.13,Wunderground v.1.15,2013-02-23 00:50:00,
2013-02-22 18:56:00,46.9,43.8,30.02,South,170,2.0,13.0,89,0.00,,,0.13,Wunderground v.1.15,2013-02-23 00:56:00,
2013-02-22 19:01:00,46.9,44.1,30.03,SSE,166,3.0,13.0,90,0.00,,,0.13,Wunderground v.1.15,2013-02-23 01:01:00,
2013-02-22 19:07:00,46.8,44.0,30.02,SSW,194,2.0,13.0,90,0.00,,,0.13,Wunderground v.1.15,2013-02-23 01:07:00,
2013-02-22 19:12:00,46.8,44.0,30.02,SSE,160,2.0,13.0,90,0.00,,,0.13,Wunderground v.1.15,2013-02-23 01:12:00,
2013-02-22 19:18:00,46.7,43.9,30.02,SSE,157,1.0,13.0,90,0.00,,,0.13,Wunderground v.1.15,2013-02-23 01:18:00,
2013-02-22 19:23:00,46.6,43.8,30.02,SE,142,1.0,13.0,90,0.00,,,0.13,Wunderground v.1.15,2013-02-23 01:23:00,
2013-02-22 19:28:00,46.5,43.7,30.01,SSE,150,1.0,13.0,90,0.00,,,0.13,Wunderground v.1.15,2013-02-23 01:28:00,
2013-02-22 19:34:00,46.5,43.7,30.01,SSE,149,0.0,13.0,90,0.00,,,0.13,Wunderground v.1.15,2013-02-23 01:34:00,
2013-02-22 19:39:00,46.5,44.0,30.01,SSE,149,0.0,13.0,91,0.00,,,0.13,Wunderground v.1.15,2013-02-23 01:39:00,
2013-02-22 19:45:00,46.4,43.9,30.02,SSE,149,0.0,13.0,91,0.00,,,0.13,Wunderground v.1.15,2013-02-23 01:45:00,
2013-02-22 19:50:00,46.5,44.0,30.03,SSE,149,0.0,13.0,91,0.00,,,0.13,Wunderground v.1.15,2013-02-23 01:50:00,
2013-02-22 19:55:00,46.5,44.0,30.04,South,171,0.0,13.0,91,0.00,,,0.13,Wunderground v.1.15,2013-02-23 01:55:00,
2013-02-22 20:01:00,46.5,44.0,30.04,South,170,1.0,13.0,91,0.00,,,0.13,Wunderground v.1.15,2013-02-23 02:01:00,
2013-02-22 20:06:00,46.6,44.1,30.05,South,178,2.0,13.0,91,0.00,,,0.13,Wunderground v.1.15,2013-02-23 02:06:00,
2013-02-22 20:12:00,46.6,44.1,30.04,SSE,167,1.0,13.0,91,0.00,,,0.13,Wunderground v.1.15,2013-02-23 02:12:00,
2013-02-22 20:17:00,46.7,44.2,30.04,SSE,162,2.0,13.0,91,0.00,,,0.13,Wunderground v.1.15,2013-02-23 02:17:00,
2013-02-22 20:23:00,46.7,44.2,30.03,SSE,159,1.0,13.0,91,0.00,,,0.13,Wunderground v.1.15,2013-02-23 02:23:00,
2013-02-22 20:28:00,46.7,44.2,30.04,SSE,153,1.0,13.0,91,0.00,,,0.13,Wunderground v.1.15,2013-02-23 02:28:00,
2013-02-22 20:33:00,46.7,44.2,30.05,SSE,166,1.0,13.0,91,0.00,,,0.13,Wunderground v.1.15,2013-02-23 02:33:00,
2013-02-22 20:39:00,46.8,44.3,30.05,South,169,1.0,13.0,91,0.00,,,0.13,Wunderground v.1.15,2013-02-23 02:39:00,
2013-02-22 20:44:00,46.8,44.3,30.05,SSE,162,1.0,13.0,91,0.00,,,0.13,Wunderground v.1.15,2013-02-23 02:44:00,
2013-02-22 20:50:00,46.7,44.2,30.05,SSE,166,1.0,13.0,91,0.00,,,0.13,Wunderground v.1.15,2013-02-23 02:50:00,
2013-02-22 20:55:00,46.5,44.3,30.05,South,183,2.0,13.0,92,0.00,,,0.13,Wunderground v.1.15,2013-02-23 02:55:00,
2013-02-22 21:01:00,46.4,44.2,30.05,South,174,3.0,13.0,92,0.00,,,0.13,Wunderground v.1.15,2013-02-23 03:01:00,
2013-02-22 21:06:00,46.3,44.1,30.05,South,174,3.0,13.0,92,0.00,,,0.13,Wunderground v.1.15,2013-02-23 03:06:00,
2013-02-22 21:12:00,46.3,44.1,30.04,SSE,163,2.0,13.0,92,0.00,,,0.13,Wunderground v.1.15,2013-02-23 03:12:00,
2013-02-22 21:17:00,46.3,44.1,30.05,South,181,1.0,13.0,92,0.00,,,0.13,Wunderground v.1.15,2013-02-23 03:17:00,
2013-02-22 21:22:00,46.3,44.1,30.05,SSE,166,2.0,13.0,92,0.00,,,0.13,Wunderground v.1.15,2013-02-23 03:22:00,
2013-02-22 21:28:00,46.3,44.1,30.05,SSE,167,2.0,13.0,92,0.00,,,0.13,Wunderground v.1.15,2013-02-23 03:28:00,
2013-02-22 21:33:00,46.3,44.1,30.05,SSE,162,2.0,13.0,92,0.00,,,0.13,Wunderground v.1.15,2013-02-23 03:33:00,
2013-02-22 21:39:00,46.4,44.2,30.06,SSE,168,2.0,13.0,92,0.00,,,0.13,Wunderground v.1.15,2013-02-23 03:39:00,
2013-02-22 21:44:00,46.4,44.2,30.05,SSE,166,2.0,13.0,92,0.00,,,0.13,Wunderground v.1.15,2013-02-23 03:44:00,
2013-02-22 21:50:00,46.3,43.8,30.05,SSE,164,1.0,1.0,91,0.00,,,0.13,Wunderground v.1.15,2013-02-23 03:50:00,
2013-02-22 21:55:00,46.3,43.8,30.06,SSE,166,1.0,13.0,91,0.00,,,0.13,Wunderground v.1.15,2013-02-23 03:55:00,
2013-02-22 22:00:00,46.3,43.8,30.04,SSE,159,1.0,13.0,91,0.00,,,0.13,Wunderground v.1.15,2013-02-23 04:00:00,
2013-02-22 22:06:00,46.3,44.1,30.04,SSE,159,1.0,13.0,92,0.00,,,0.13,Wunderground v.1.15,2013-02-23 04:06:00,
2013-02-22 22:11:00,46.2,44.0,30.03,SSE,162,0.0,13.0,92,0.00,,,0.13,Wunderground v.1.15,2013-02-23 04:11:00,
2013-02-22 22:17:00,46.2,44.0,30.02,SSE,162,0.0,13.0,92,0.00,,,0.13,Wunderground v.1.15,2013-02-23 04:17:00,
2013-02-22 22:22:00,46.2,44.0,30.03,SSE,162,0.0,13.0,92,0.00,,,0.13,Wunderground v.1.15,2013-02-23 04:22:00,
2013-02-22 22:28:00,46.1,43.9,30.01,SSE,162,0.0,13.0,92,0.00,,,0.13,Wunderground v.1.15,2013-02-23 04:28:00,
2013-02-22 22:33:00,46.1,43.9,30.01,SSE,164,1.0,13.0,92,0.00,,,0.13,Wunderground v.1.15,2013-02-23 04:33:00,
2013-02-22 22:39:00,46.0,43.8,30.00,SSE,156,1.0,13.0,92,0.00,,,0.13,Wunderground v.1.15,2013-02-23 04:39:00,
2013-02-22 22:44:00,46.0,43.8,30.02,South,169,1.0,13.0,92,0.00,,,0.13,Wunderground v.1.15,2013-02-23 04:44:00,
2013-02-22 22:50:00,46.0,43.8,30.03,SSE,157,1.0,13.0,92,0.00,,,0.13,Wunderground v.1.15,2013-02-23 04:50:00,
2013-02-22 22:55:00,46.0,43.8,30.04,South,174,2.0,13.0,92,0.00,,,0.13,Wunderground v.1.15,2013-02-23 04:55:00,
2013-02-22 23:01:00,46.0,43.8,30.04,SSE,162,2.0,13.0,92,0.00,,,0.13,Wunderground v.1.15,2013-02-23 05:01:00,
2013-02-22 23:03:00,46.1,43.9,30.05,SSE,157,2.0,13.0,92,0.00,,,0.13,Wunderground v.1.15,2013-02-23 05:03:00,
2013-02-22 23:05:00,46.1,43.9,30.05,SSE,157,2.0,13.0,92,0.00,,,0.13,Wunderground v.1.15,2013-02-23 05:05:00,
2013-02-22 23:10:00,46.1,44.2,30.04,SSE,167,1.0,13.0,93,0.00,,,0.13,Wunderground v.1.15,2013-02-23 05:10:00,
2013-02-22 23:16:00,46.2,44.3,30.03,SSE,164,1.0,13.0,93,0.00,,,0.13,Wunderground v.1.15,2013-02-23 05:16:00,
2013-02-22 23:22:00,46.2,44.0,30.02,SSE,164,1.0,13.0,92,0.00,,,0.13,Wunderground v.1.15,2013-02-23 05:22:00,
2013-02-22 23:27:00,46.0,44.1,30.01,SSE,164,0.0,13.0,93,0.00,,,0.13,Wunderground v.1.15,2013-02-23 05:27:00,
2013-02-22 23:33:00,45.9,44.0,30.01,SSE,160,1.0,13.0,93,0.00,,,0.13,Wunderground v.1.15,2013-02-23 05:33:00,
2013-02-22 23:38:00,45.8,43.9,30.01,SSE,157,0.0,13.0,93,0.00,,,0.13,Wunderground v.1.15,2013-02-23 05:38:00,
2013-02-22 23:44:00,45.7,43.8,30.01,SSE,157,0.0,13.0,93,0.00,,,0.13,Wunderground v.1.15,2013-02-23 05:44:00,
2013-02-22 23:49:00,45.7,43.8,30.02,SSE,164,0.0,13.0,93,0.00,,,0.13,Wunderground v.1.15,2013-02-23 05:49:00,
2013-02-22 23:55:00,45.7,44.1,30.01,SSE,164,0.0,13.0,94,0.00,,,0.13,Wunderground v.1.15,2013-02-23 05:55:00,